Time,TemperatureF,DewpointF,PressureIn,WindDirection,WindDirectionDegrees,WindSpeedMPH,WindSpeedGustMPH,Humidity,HourlyPrecipIn,Conditions,Clouds,dailyrainin,SoftwareType,DateUTC
2014-09-22 00:00:00,57.5,54.3,30.42,SSW,199,8.1,8.1,89,0.00,CLR,OVC,0.10,WeatherDisplay:10.37,2014-09-21 14:00:00,
2014-09-22 00:05:00,57.6,54.4,30.42,SSW,199,9.2,9.2,89,0.00,RA,OVC,0.00,WeatherDisplay:10.37,2014-09-21 14:05:00,
2014-09-22 00:10:00,57.4,54.2,30.42,SSW,198,9.2,9.2,89,0.00,RA,OVC,0.00,WeatherDisplay:10.37,2014-09-21 14:10:00,
2014-09-22 00:15:00,57.5,54.3,30.41,SSW,195,9.2,9.2,89,0.00,CLR,OVC,0.00,WeatherDisplay:10.37,2014-09-21 14:15:00,
2014-09-22 00:20:00,57.6,54.4,30.41,South,181,10.4,10.4,89,0.00,CLR,OVC,0.00,WeatherDisplay:10.37,2014-09-21 14:20:00,
2014-09-22 00:25:00,57.7,54.5,30.41,South,182,6.9,6.9,89,0.00,CLR,OVC,0.00,WeatherDisplay:10.37,2014-09-21 14:25:00,
2014-09-22 00:31:00,57.9,54.7,30.41,South,185,9.2,9.2,89,0.00,CLR,OVC,0.00,WeatherDisplay:10.37,2014-09-21 14:31:00,
2014-09-22 00:36:00,58.0,54.8,30.41,SSW,194,9.2,9.2,89,0.00,CLR,OVC,0.00,WeatherDisplay:10.37,2014-09-21 14:36:00,
2014-09-22 00:41:00,58.0,54.8,30.40,SSW,203,9.2,9.2,89,0.00,CLR,OVC,0.00,WeatherDisplay:10.37,2014-09-21 14:41:00,
2014-09-22 00:46:00,57.8,54.6,30.40,SSW,209,10.4,10.4,89,0.00,CLR,OVC,0.00,WeatherDisplay:10.37,2014-09-21 14:46:00,
2014-09-22 00:51:00,57.7,54.5,30.41,South,191,10.0,10.0,89,0.00,CLR,OVC,0.00,WeatherDisplay:10.37,2014-09-21 14:51:00,
2014-09-22 00:56:00,57.4,54.2,30.40,SSW,192,11.5,11.5,89,0.00,CLR,OVC,0.00,WeatherDisplay:10.37,2014-09-21 14:56:00,
2014-09-22 01:01:00,57.4,54.2,30.40,SSW,205,9.2,9.2,89,0.00,CLR,OVC,0.00,WeatherDisplay:10.37,2014-09-21 15:01:00,
2014-09-22 01:06:00,57.4,54.2,30.40,SSW,199,9.2,9.2,89,0.00,CLR,OVC,0.00,WeatherDisplay:10.37,2014-09-21 15:06:00,
2014-09-22 01:11:00,57.3,54.1,30.40,South,182,11.5,11.5,89,0.00,CLR,OVC,0.00,WeatherDisplay:10.37,2014-09-21 15:11:00,
2014-09-22 01:16:00,57.3,54.1,30.40,SSW,193,12.0,12.0,89,0.00,CLR,OVC,0.00,WeatherDisplay:10.37,2014-09-21 15:16:00,
2014-09-22 01:21:00,57.2,54.0,30.39,SSW,196,11.5,11.5,89,0.00,CLR,OVC,0.00,WeatherDisplay:10.37,2014-09-21 15:21:00,
2014-09-22 01:26:00,57.2,54.0,30.40,South,187,9.2,9.2,89,0.00,CLR,OVC,0.00,WeatherDisplay:10.37,2014-09-21 15:26:00,
2014-09-22 01:31:00,57.2,54.0,30.39,South,185,12.7,12.7,89,0.00,CLR,OVC,0.00,WeatherDisplay:10.37,2014-09-21 15:31:00,
2014-09-22 01:36:00,57.1,54.2,30.39,South,185,13.8,13.8,90,0.00,CLR,OVC,0.00,WeatherDisplay:10.37,2014-09-21 15:36:00,
2014-09-22 01:41:00,57.2,54.3,30.39,South,181,11.5,11.5,90,0.00,CLR,OVC,0.00,WeatherDisplay:10.37,2014-09-21 15:41:00,
2014-09-22 01:43:00,57.1,54.2,30.38,SSW,192,11.5,11.5,90,0.00,CLR,OVC,0.00,WeatherDisplay:10.37,2014-09-21 15:43:00,
2014-09-22 01:48:00,57.0,54.1,30.38,South,190,10.4,10.4,90,0.00,CLR,OVC,0.00,WeatherDisplay:10.37,2014-09-21 15:48:00,
2014-09-22 01:53:00,57.0,54.1,30.39,South,183,12.7,12.7,90,0.00,CLR,OVC,0.00,WeatherDisplay:10.37,2014-09-21 15:53:00,
2014-09-22 01:58:00,56.9,54.3,30.39,South,184,11.5,11.5,91,0.00,CLR,OVC,0.00,WeatherDisplay:10.37,2014-09-21 15:58:00,
2014-09-22 02:03:00,56.9,54.3,30.39,SSW,192,11.5,11.5,91,0.00,CLR,OVC,0.00,WeatherDisplay:10.37,2014-09-21 16:03:00,
2014-09-22 02:09:00,56.9,54.3,30.39,SSW,201,8.1,8.1,91,0.00,CLR,OVC,0.00,WeatherDisplay:10.37,2014-09-21 16:09:00,
2014-09-22 02:15:00,57.1,54.5,30.38,SSW,199,7.0,7.0,91,0.00,CLR,OVC,0.00,WeatherDisplay:10.37,2014-09-21 16:15:00,
2014-09-22 02:20:00,57.0,54.4,30.39,SSW,200,4.6,4.6,91,0.00,CLR,OVC,0.00,WeatherDisplay:10.37,2014-09-21 16:20:00,
2014-09-22 02:25:00,56.8,54.2,30.39,SW,227,5.8,5.8,91,0.00,CLR,OVC,0.00,WeatherDisplay:10.37,2014-09-21 16:25:00,
2014-09-22 02:30:00,56.5,53.9,30.38,SW,221,5.8,5.8,91,0.00,CLR,OVC,0.00,WeatherDisplay:10.37,2014-09-21 16:30:00,
2014-09-22 02:35:00,56.5,54.2,30.39,SSW,213,9.2,9.2,92,0.00,CLR,OVC,0.00,WeatherDisplay:10.37,2014-09-21 16:35:00,
2014-09-22 02:40:00,56.7,54.4,30.39,SSW,203,8.1,8.1,92,0.00,CLR,OVC,0.00,WeatherDisplay:10.37,2014-09-21 16:40:00,
2014-09-22 02:45:00,56.8,54.5,30.38,SW,223,9.2,9.2,92,0.00,CLR,OVC,0.00,WeatherDisplay:10.37,2014-09-21 16:45:00,
2014-09-22 02:50:00,56.7,54.4,30.38,SSW,195,9.2,9.2,92,0.00,CLR,OVC,0.00,WeatherDisplay:10.37,2014-09-21 16:50:00,
2014-09-22 02:56:00,56.7,54.4,30.38,SSW,206,9.2,9.2,92,0.00,CLR,OVC,0.00,WeatherDisplay:10.37,2014-09-21 16:56:00,
2014-09-22 03:02:00,56.8,54.5,30.38,SSW,200,8.1,8.1,92,0.00,CLR,OVC,0.00,WeatherDisplay:10.37,2014-09-21 17:02:00,
2014-09-22 03:07:00,56.8,54.5,30.38,SSW,204,6.9,6.9,92,0.00,CLR,OVC,0.00,WeatherDisplay:10.37,2014-09-21 17:07:00,
2014-09-22 03:12:00,56.7,54.4,30.39,SSW,208,8.1,8.1,92,0.00,CLR,OVC,0.00,WeatherDisplay:10.37,2014-09-21 17:12:00,
2014-09-22 03:17:00,56.5,54.2,30.38,SSW,198,9.2,9.2,92,0.00,CLR,OVC,0.00,WeatherDisplay:10.37,2014-09-21 17:17:00,
2014-09-22 03:22:00,56.5,54.2,30.38,SSW,201,8.1,8.1,92,0.00,CLR,OVC,0.00,WeatherDisplay:10.37,2014-09-21 17:22:00,
2014-09-22 03:28:00,56.6,54.3,30.38,SSW,201,8.1,8.1,92,0.00,CLR,OVC,0.00,WeatherDisplay:10.37,2014-09-21 17:28:00,
2014-09-22 03:33:00,56.7,54.4,30.38,SSW,194,6.9,6.9,92,0.00,CLR,OVC,0.00,WeatherDisplay:10.37,2014-09-21 17:33:00,
2014-09-22 03:38:00,56.8,54.5,30.39,SSW,199,6.9,6.9,92,0.00,CLR,OVC,0.00,WeatherDisplay:10.37,2014-09-21 17:38:00,
2014-09-22 03:43:00,56.9,54.6,30.38,SSW,199,6.9,6.9,92,0.00,CLR,OVC,0.00,WeatherDisplay:10.37,2014-09-21 17:43:00,
2014-09-22 03:48:00,56.9,54.6,30.39,SSW,198,6.9,6.9,92,0.00,CLR,OVC,0.00,WeatherDisplay:10.37,2014-09-21 17:48:00,
2014-09-22 03:53:00,57.3,55.0,30.39,SSW,201,6.9,6.9,92,0.00,CLR,OVC,0.00,WeatherDisplay:10.37,2014-09-21 17:53:00,
2014-09-22 03:58:00,56.7,54.4,30.39,SSW,196,8.1,8.1,92,0.00,CLR,OVC,0.00,WeatherDisplay:10.37,2014-09-21 17:58:00,
2014-09-22 04:00:00,56.8,54.5,30.38,SSW,197,6.9,6.9,92,0.00,CLR,OVC,0.00,WeatherDisplay:10.37,2014-09-21 18:00:00,
2014-09-22 04:05:00,56.9,54.6,30.39,SSW,192,6.9,6.9,92,0.00,CLR,OVC,0.00,WeatherDisplay:10.37,2014-09-21 18:05:00,
2014-09-22 04:10:00,57.0,54.7,30.39,South,180,7.0,7.0,92,0.00,CLR,OVC,0.00,WeatherDisplay:10.37,2014-09-21 18:10:00,
2014-09-22 04:15:00,57.2,54.6,30.39,South,189,8.1,8.1,91,0.00,CLR,OVC,0.00,WeatherDisplay:10.37,2014-09-21 18:15:00,
2014-09-22 04:17:00,57.3,54.7,30.38,South,191,8.1,8.1,91,0.00,CLR,OVC,0.00,WeatherDisplay:10.37,2014-09-21 18:17:00,
2014-09-22 04:22:00,57.3,54.7,30.39,SSW,201,8.1,8.1,91,0.00,CLR,OVC,0.00,WeatherDisplay:10.37,2014-09-21 18:22:00,
2014-09-22 04:27:00,57.3,54.7,30.38,South,190,9.2,9.2,91,0.00,CLR,OVC,0.00,WeatherDisplay:10.37,2014-09-21 18:27:00,
2014-09-22 04:32:00,57.1,54.5,30.39,SSW,199,9.2,9.2,91,0.00,CLR,OVC,0.00,WeatherDisplay:10.37,2014-09-21 18:32:00,
2014-09-22 04:37:00,57.6,55.0,30.39,SSW,198,10.4,10.4,91,0.00,CLR,OVC,0.00,WeatherDisplay:10.37,2014-09-21 18:37:00,
2014-09-22 04:42:00,57.1,54.5,30.39,South,191,8.1,8.1,91,0.00,CLR,OVC,0.00,WeatherDisplay:10.37,2014-09-21 18:42:00,
2014-09-22 04:47:00,57.1,54.5,30.39,SSW,210,8.1,8.1,91,0.00,CLR,OVC,0.00,WeatherDisplay:10.37,2014-09-21 18:47:00,
2014-09-22 04:52:00,57.1,54.8,30.39,SSW,196,9.2,9.2,92,0.00,CLR,OVC,0.00,WeatherDisplay:10.37,2014-09-21 18:52:00,
2014-09-22 04:57:00,57.1,54.8,30.39,SSW,197,11.5,11.5,92,0.00,CLR,OVC,0.00,WeatherDisplay:10.37,2014-09-21 18:57:00,
2014-09-22 05:02:00,57.5,55.2,30.40,South,190,10.4,10.4,92,0.00,CLR,OVC,0.00,WeatherDisplay:10.37,2014-09-21 19:02:00,
2014-09-22 05:07:00,57.3,55.3,30.40,South,183,11.5,11.5,93,0.00,CLR,OVC,0.00,WeatherDisplay:10.37,2014-09-21 19:07:00,
2014-09-22 05:12:00,57.2,55.2,30.40,South,187,11.5,11.5,93,0.00,CLR,OVC,0.00,WeatherDisplay:10.37,2014-09-21 19:12:00,
2014-09-22 05:17:00,57.3,55.3,30.40,South,182,9.2,9.2,93,0.00,CLR,OVC,0.00,WeatherDisplay:10.37,2014-09-21 19:17:00,
2014-09-22 05:22:00,57.3,55.3,30.40,South,180,11.5,11.5,93,0.00,CLR,OVC,0.00,WeatherDisplay:10.37,2014-09-21 19:22:00,
2014-09-22 05:27:00,57.4,55.7,30.41,South,182,11.5,11.5,94,0.00,CLR,OVC,0.00,WeatherDisplay:10.37,2014-09-21 19:27:00,
2014-09-22 05:32:00,57.3,55.3,30.41,South,182,10.4,10.4,93,0.00,CLR,OVC,0.00,WeatherDisplay:10.37,2014-09-21 19:32:00,
2014-09-22 05:37:00,57.3,55.3,30.41,South,187,8.1,8.1,93,0.00,CLR,OVC,0.00,WeatherDisplay:10.37,2014-09-21 19:37:00,
2014-09-22 05:42:00,57.2,55.2,30.41,South,191,9.2,9.2,93,0.00,CLR,OVC,0.00,WeatherDisplay:10.37,2014-09-21 19:42:00,
2014-09-22 05:47:00,57.3,55.3,30.41,SSW,193,6.9,6.9,93,0.00,CLR,OVC,0.00,WeatherDisplay:10.37,2014-09-21 19:47:00,
2014-09-22 05:52:00,57.3,55.3,30.41,SSW,193,6.9,6.9,93,0.00,CLR,OVC,0.00,WeatherDisplay:10.37,2014-09-21 19:52:00,
2014-09-22 05:57:00,57.3,55.3,30.41,South,191,8.1,8.1,93,0.00,CLR,OVC,0.00,WeatherDisplay:10.37,2014-09-21 19:57:00,
2014-09-22 06:02:00,57.4,55.7,30.42,SSW,200,5.8,5.8,94,0.00,CLR,OVC,0.00,WeatherDisplay:10.37,2014-09-21 20:02:00,
2014-09-22 06:07:00,57.3,55.6,30.42,SSW,200,6.9,6.9,94,0.00,CLR,OVC,0.00,WeatherDisplay:10.37,2014-09-21 20:07:00,
2014-09-22 06:12:00,57.3,55.6,30.42,SSW,204,6.9,6.9,94,0.00,CLR,OVC,0.00,WeatherDisplay:10.37,2014-09-21 20:12:00,
2014-09-22 06:17:00,57.3,55.6,30.42,SSW,192,6.9,6.9,94,0.00,CLR,OVC,0.00,WeatherDisplay:10.37,2014-09-21 20:17:00,
2014-09-22 06:22:00,57.4,55.7,30.43,SSW,193,6.9,6.9,94,0.00,CLR,OVC,0.00,WeatherDisplay:10.37,2014-09-21 20:22:00,
2014-09-22 06:27:00,57.8,56.1,30.43,SSW,192,8.1,8.1,94,0.00,CLR,OVC,0.00,WeatherDisplay:10.37,2014-09-21 20:27:00,
2014-09-22 06:32:00,58.4,57.0,30.43,SSW,197,8.1,8.1,95,0.00,CLR,OVC,0.00,WeatherDisplay:10.37,2014-09-21 20:32:00,
2014-09-22 06:38:00,59.1,57.7,30.43,SSW,199,6.9,6.9,95,0.00,CLR,OVC,0.00,WeatherDisplay:10.37,2014-09-21 20:38:00,
2014-09-22 06:43:00,59.8,58.1,30.43,SSW,202,5.0,5.0,94,0.00,CLR,OVC,0.00,WeatherDisplay:10.37,2014-09-21 20:43:00,
2014-09-22 06:48:00,60.3,58.6,30.43,SSW,202,4.6,4.6,94,0.00,CLR,OVC,0.00,WeatherDisplay:10.37,2014-09-21 20:48:00,
2014-09-22 06:54:00,60.6,58.6,30.44,SSW,203,4.6,4.6,93,0.00,CLR,OVC,0.00,WeatherDisplay:10.37,2014-09-21 20:54:00,
2014-09-22 06:59:00,61.0,59.0,30.44,WSW,240,4.6,4.6,93,0.00,CLR,OVC,0.00,WeatherDisplay:10.37,2014-09-21 20:59:00,
2014-09-22 07:04:00,61.7,59.7,30.44,WSW,240,4.6,4.6,93,0.00,CLR,OVC,0.00,WeatherDisplay:10.37,2014-09-21 21:04:00,
2014-09-22 07:09:00,62.4,60.0,30.44,WSW,240,2.3,2.3,92,0.00,CLR,OVC,0.00,WeatherDisplay:10.37,2014-09-21 21:09:00,
2014-09-22 07:14:00,63.2,60.8,30.44,WSW,240,3.5,3.5,92,0.00,CLR,OVC,0.00,WeatherDisplay:10.37,2014-09-21 21:14:00,
2014-09-22 07:19:00,63.6,61.2,30.45,WSW,239,3.5,3.5,92,0.00,CLR,OVC,0.00,WeatherDisplay:10.37,2014-09-21 21:19:00,
2014-09-22 07:24:00,64.6,61.9,30.44,WSW,239,3.5,3.5,91,0.00,CLR,OVC,0.00,WeatherDisplay:10.37,2014-09-21 21:24:00,
2014-09-22 07:29:00,65.1,61.8,30.45,SW,235,3.5,3.5,89,0.00,CLR,OVC,0.00,WeatherDisplay:10.37,2014-09-21 21:29:00,
2014-09-22 07:34:00,65.4,62.1,30.45,SW,226,4.6,4.6,89,0.00,CLR,OVC,0.00,WeatherDisplay:10.37,2014-09-21 21:34:00,
2014-09-22 07:39:00,65.7,62.0,30.45,SSW,206,4.6,4.6,88,0.00,CLR,OVC,0.00,WeatherDisplay:10.37,2014-09-21 21:39:00,
2014-09-22 07:44:00,65.8,61.8,30.45,SSE,164,3.5,3.5,87,0.00,CLR,OVC,0.00,WeatherDisplay:10.37,2014-09-21 21:44:00,
2014-09-22 07:49:00,65.9,60.9,30.45,SSE,151,8.1,8.1,84,0.00,CLR,OVC,0.00,WeatherDisplay:10.37,2014-09-21 21:49:00,
2014-09-22 07:54:00,66.1,60.4,30.45,SSE,154,6.9,6.9,82,0.00,CLR,OVC,0.00,WeatherDisplay:10.37,2014-09-21 21:54:00,
2014-09-22 07:59:00,66.2,60.2,30.45,SE,139,9.2,9.2,81,0.00,CLR,OVC,0.00,WeatherDisplay:10.37,2014-09-21 21:59:00,
2014-09-22 08:05:00,65.9,59.6,30.45,SE,146,9.2,9.2,80,0.00,CLR,OVC,0.00,WeatherDisplay:10.37,2014-09-21 22:05:00,
2014-09-22 08:10:00,65.7,59.4,30.45,SE,127,9.2,9.2,80,0.00,CLR,OVC,0.00,WeatherDisplay:10.37,2014-09-21 22:10:00,
2014-09-22 08:15:00,65.3,58.6,30.46,SSE,165,8.0,8.0,79,0.00,CLR,OVC,0.00,WeatherDisplay:10.37,2014-09-21 22:15:00,
2014-09-22 08:19:00,65.4,58.4,30.45,SE,143,6.9,6.9,78,0.00,CLR,OVC,0.00,WeatherDisplay:10.37,2014-09-21 22:19:00,
2014-09-22 08:24:00,65.6,58.2,30.45,SSE,147,5.8,5.8,77,0.00,CLR,OVC,0.00,WeatherDisplay:10.37,2014-09-21 22:24:00,
2014-09-22 08:29:00,65.8,58.4,30.45,SSE,147,11.5,11.5,77,0.00,CLR,OVC,0.00,WeatherDisplay:10.37,2014-09-21 22:29:00,
2014-09-22 08:34:00,65.9,58.1,30.45,SSE,153,6.9,6.9,76,0.00,CLR,OVC,0.00,WeatherDisplay:10.37,2014-09-21 22:34:00,
2014-09-22 08:39:00,66.0,58.2,30.46,East,101,8.0,8.0,76,0.00,CLR,OVC,0.00,WeatherDisplay:10.37,2014-09-21 22:39:00,
2014-09-22 08:44:00,65.2,57.1,30.47,SE,136,11.5,11.5,75,0.00,CLR,OVC,0.00,WeatherDisplay:10.37,2014-09-21 22:44:00,
2014-09-22 08:50:00,65.0,56.9,30.46,East,100,8.1,8.1,75,0.00,CLR,OVC,0.00,WeatherDisplay:10.37,2014-09-21 22:50:00,
2014-09-22 08:55:00,64.3,56.6,30.46,East,98,5.8,5.8,76,0.00,CLR,OVC,0.00,WeatherDisplay:10.37,2014-09-21 22:55:00,
2014-09-22 09:00:00,64.1,56.0,30.46,ESE,114,9.2,9.2,75,0.00,CLR,OVC,0.00,WeatherDisplay:10.37,2014-09-21 23:00:00,
2014-09-22 09:05:00,64.3,56.2,30.46,ESE,120,8.1,8.1,75,0.00,CLR,OVC,0.00,WeatherDisplay:10.37,2014-09-21 23:05:00,
2014-09-22 09:10:00,64.5,56.4,30.47,ESE,111,9.2,9.2,75,0.00,CLR,OVC,0.00,WeatherDisplay:10.37,2014-09-21 23:10:00,
2014-09-22 09:15:00,64.4,55.9,30.46,ESE,106,8.1,8.1,74,0.00,CLR,OVC,0.00,WeatherDisplay:10.37,2014-09-21 23:15:00,
2014-09-22 09:20:00,64.0,55.9,30.46,ESE,117,6.9,6.9,75,0.00,CLR,OVC,0.00,WeatherDisplay:10.37,2014-09-21 23:20:00,
2014-09-22 09:25:00,64.3,55.8,30.46,ESE,102,5.8,5.8,74,0.00,CLR,OVC,0.00,WeatherDisplay:10.37,2014-09-21 23:25:00,
2014-09-22 09:30:00,64.5,56.0,30.46,East,98,5.8,5.8,74,0.00,CLR,OVC,0.00,WeatherDisplay:10.37,2014-09-21 23:30:00,
2014-09-22 09:35:00,64.6,55.7,30.47,East,99,6.9,6.9,73,0.00,CLR,OVC,0.00,WeatherDisplay:10.37,2014-09-21 23:35:00,
2014-09-22 09:40:00,64.5,55.7,30.46,ESE,106,9.2,9.2,73,0.00,CLR,OVC,0.00,WeatherDisplay:10.37,2014-09-21 23:40:00,
2014-09-22 09:45:00,64.4,55.6,30.46,ESE,102,5.8,5.8,73,0.00,CLR,OVC,0.00,WeatherDisplay:10.37,2014-09-21 23:45:00,
2014-09-22 09:50:00,64.6,55.7,30.46,ESE,109,8.1,8.1,73,0.00,CLR,OVC,0.00,WeatherDisplay:10.37,2014-09-21 23:50:00,
2014-09-22 09:55:00,64.9,55.7,30.46,ESE,110,9.2,9.2,72,0.00,CLR,OVC,0.00,WeatherDisplay:10.37,2014-09-21 23:55:00,
2014-09-22 10:00:00,64.9,55.3,30.46,East,97,8.1,8.1,71,0.00,CLR,OVC,0.00,WeatherDisplay:10.37,2014-09-22 00:00:00,
2014-09-22 10:05:00,64.7,55.5,30.46,East,85,6.9,6.9,72,0.00,CLR,OVC,0.00,WeatherDisplay:10.37,2014-09-22 00:05:00,
2014-09-22 10:11:00,65.0,55.4,30.45,ESE,116,5.8,5.8,71,0.00,CLR,OVC,0.00,WeatherDisplay:10.37,2014-09-22 00:11:00,
2014-09-22 10:16:00,65.2,55.2,30.45,ESE,103,5.8,5.8,70,0.00,CLR,OVC,0.00,WeatherDisplay:10.37,2014-09-22 00:16:00,
2014-09-22 10:21:00,65.1,55.1,30.45,East,100,4.6,4.6,70,0.00,CLR,OVC,0.00,WeatherDisplay:10.37,2014-09-22 00:21:00,
2014-09-22 10:26:00,65.2,55.2,30.45,ESE,107,4.6,4.6,70,0.00,CLR,OVC,0.00,WeatherDisplay:10.37,2014-09-22 00:26:00,